Location: Altshausen
(47.9327°N, 9.5404°E)
Time: 23:32:01
(UTC+00:00)

Daily predictions for brighter satellites

Satellite Brightness Start Highest point End
(mag) Time Altitude Azimuth Time Altitude Azimuth Time Altitude Azimuth
Cosmos 1515 3.8 19:41:01 10° S 19:44:43 56° E 19:48:26 10° NNE
CZ-4B R/B 1.3 19:41:45 10° NNE 19:44:56 58° ESE 19:48:01 10° S
SPOT 1/Viking Rocket 3.6 19:41:16 10° SSE 19:46:24 71° ENE 19:51:33 10° N
Helios 1A Rocket 4.2 19:43:33 10° ESE 19:46:54 27° ENE 19:50:18 10° N
Meteor 1-27 Rocket 3.9 19:41:45 10° S 19:47:28 65° E 19:53:18 10° NNE
Cosmos 1633 Rocket 4.0 19:46:43 10° NNW 19:50:58 50° W 19:55:10 10° SSW
Cosmos 2219 3.7 19:46:41 10° NNW 19:52:14 60° WSW 19:57:43 10° S
Cosmos 2034 Rocket 4.5 19:46:32 10° SSE 19:52:26 44° E 19:58:25 10° NNE
Cosmos 1315 Rocket 4.4 19:50:27 10° NNW 19:54:10 35° W 19:57:50 10° SSW
SJ 16-02 2.3 19:50:29 10° SSE 19:54:15 29° E 19:58:01 10° NE
Cosmos 1340 2.6 19:51:22 10° S 19:55:03 63° E 19:58:46 10° NNE
Cosmos 2082 3.7 19:53:27 10° NNW 19:59:07 85° ENE 20:04:45 10° SSE
Meteor 1-11 Rocket 4.2 19:54:07 10° NNW 20:00:04 72° W 20:05:59 10° S
Cosmos 482 Debris 3.8 19:58:53 10° WNW 20:01:29 71° NNE 20:05:27 10° ESE
Cosmos 2263 Rocket 2.7 19:56:46 10° NNW 20:02:13 50° NE 20:07:29 11° SE
Cosmos 1470 Rocket 4.0 19:58:05 10° NNW 20:02:23 64° W 20:06:38 10° S
Cosmos 1743 2.8 20:01:51 10° NNW 20:05:38 79° W 20:09:24 10° S
Ariane Rocket 3.1 20:01:12 10° SSE 20:06:16 84° WSW 20:11:24 10° NNW
SPOT 5 3.6 20:06:30 10° SE 20:11:25 45° ENE 20:16:16 10° N
IRAS Rocket 4.3 20:05:56 10° NNE 20:11:36 87° ESE 20:17:15 10° SSW
BREEZE-M DEB (TANK) 2.0 20:08:58 10° W 20:11:42 67° N 20:13:52 10° ENE
Terra 2.9 20:09:04 11° SE 20:13:05 32° ENE 20:17:17 10° N
Resurs 01 Rocket 2.4 20:10:48 10° S 20:15:04 51° W 20:19:24 10° NNW
Aureole 1 Rocket 2.7 20:14:01 10° SSW 20:17:09 61° WNW 20:20:06 10° NNE
Cosmos 1346 Rocket 4.5 20:15:00 13° SE 20:17:11 19° E 20:20:00 10° NE
Cosmos 1515 Rocket 3.9 20:13:29 10° SSW 20:17:50 68° W 20:22:14 10° N
Cosmos 1809 Rocket 4.5 20:12:10 10° N 20:18:21 81° E 20:24:30 10° SSE
Cosmos 2227 Rocket 3.6 20:15:00 10° NW 20:20:01 33° WSW 20:25:02 10° SSW
Cosmos 921 Rocket 3.2 20:16:52 10° NNW 20:21:23 77° WSW 20:25:38 11° SSE
Cosmos 783 Rocket 4.5 20:21:51 10° NNW 20:27:05 86° ENE 20:31:34 14° SSE
Cosmos 1980 Rocket 2.2 20:24:23 10° SSW 20:30:01 84° ESE 20:35:44 10° NNE
CARTOSAT-1 3.7 20:26:14 10° S 20:30:29 74° WSW 20:34:50 10° NNW
Cosmos 1869 Rocket 3.6 20:26:15 10° N 20:30:46 76° E 20:34:33 14° SSE
SL-24 R/B - RUBIN 2 4.0 20:26:47 10° NNW 20:31:04 53° NE 20:34:41 15° ESE
Cosmos 2228 Rocket 3.3 20:29:01 10° S 20:33:29 59° E 20:37:57 10° NNE
Cosmos 1464 Rocket 4.3 20:28:28 10° SSW 20:34:38 68° WNW 20:40:47 10° N
Cosmos 1378 3.5 20:34:31 17° SSE 20:37:02 43° E 20:40:32 10° NNE
Cosmos 2344 3.5 20:30:52 10° SW 20:38:20 87° SE 20:46:08 10° NE
Cosmos 2322 Rocket 3.5 20:36:17 16° SE 20:38:51 21° E 20:42:59 10° NE
Cosmos 1777 Rocket 4.0 20:34:09 10° S 20:39:16 60° ESE 20:44:26 10° NNE
ISS -3.8 20:35:54 10° WNW 20:39:16 80° SSW 20:41:27 20° ESE
Cosmos 2369 3.9 20:34:06 10° SSW 20:39:44 74° WNW 20:45:26 10° NNE
Spot 2 Rocket 3.5 20:35:42 15° SSE 20:39:57 81° ENE 20:45:01 10° NNW
Cosmos 1354 Rocket 4.1 20:35:12 10° SSW 20:40:29 87° WNW 20:45:51 10° NNE
Cosmos 773 Rocket 4.1 20:35:52 10° NNW 20:41:05 75° WSW 20:45:19 15° SSE
SPOT 3 Rocket 3.8 20:36:10 11° S 20:41:11 66° WSW 20:46:19 10° NNW
Cosmos 1844 Rocket 4.2 20:36:50 10° N 20:41:33 27° NE 20:46:13 10° ESE
ATLAS 2AS CENTAUR R/B 2.9 20:35:17 10° SSW 20:43:03 71° SE 20:50:34 10° NE
Okean 1 3.5 20:40:48 10° SSW 20:44:48 75° W 20:48:50 10° N
Meteor 2-4 Rocket 4.0 20:40:22 13° SSE 20:45:17 52° E 20:50:45 10° NNE
H-2A R/B 4.5 20:42:15 10° NNW 20:45:29 23° WNW 20:48:42 10° WSW
Meteor 1-19 Rocket 4.2 20:41:29 10° SSW 20:46:55 86° W 20:52:22 10° N
Cosmos 1092 Rocket 4.0 20:40:51 10° N 20:47:03 78° E 20:52:05 16° SSE
Nadezhda 4 Rocket 4.4 20:41:40 10° NNW 20:47:49 63° W 20:53:51 10° S
RESURS DK-1 2.2 20:44:44 10° SSW 20:48:51 79° ESE 20:53:00 10° NNE
Cosmos 1697 Rocket 4.1 20:43:48 10° WSW 20:49:07 41° NW 20:54:30 10° NNE
SL-4 R/B 4.1 20:46:37 10° W 20:49:44 19° SW 20:52:09 12° S
USA 267 4.4 20:47:45 10° ENE 20:53:50 43° N 20:59:55 10° WNW
Cosmos 1634 Rocket 4.1 20:49:58 14° S 20:55:18 63° E 21:01:24 10° NNE
ARIANE 5 R/B 2.8 20:53:39 21° SSE 20:56:31 62° ENE 21:00:59 10° N
ATLAS CENTAUR R/B 3.6 20:53:07 10° NNW 20:57:07 24° NNE 21:01:00 10° E
Cosmos 1707 Rocket 3.7 20:54:13 19° SSE 20:57:11 56° E 21:01:30 10° NNE
Cosmos 44 Rocket 3.2 20:53:48 10° NW 20:58:32 85° WSW 21:01:28 23° SSE
Cosmos 2227 4.2 20:58:19 10° NNW 21:04:07 89° WSW 21:07:59 22° SSE
Cosmos 1733 4.4 21:01:44 10° NNE 21:05:04 28° ENE 21:06:32 22° ESE
Cosmos 158 Rocket 4.0 21:00:49 10° NNW 21:05:57 77° WSW 21:09:24 22° SSE
ATLAS 3B R/B 3.0 21:00:21 10° NW 21:07:43 78° NE 21:13:24 20° SE
NOSS 2-1 (E) 3.1 21:08:10 31° S 21:09:08 41° SE 21:12:12 10° NE
Cosmos 1975 3.0 21:07:04 10° NNW 21:11:08 71° W 21:13:33 23° S
Cosmos 2026 Rocket 4.0 21:06:07 10° N 21:12:18 81° W 21:17:00 19° S
USA 81 4.0 21:09:01 19° S 21:12:50 78° E 21:18:07 10° N
ERS-1 Rocket 3.4 21:12:32 18° S 21:16:10 59° W 21:21:10 10° NNW
SL-16 R/B 2.3 21:13:28 17° S 21:17:48 57° ESE 21:23:22 10° NE
Meteor 1-4 Rocket 3.2 21:15:12 10° N 21:18:31 40° ENE 21:19:36 31° ESE
CZ-4C R/B 4.1 21:13:12 10° NW 21:19:18 35° NNE 21:26:28 10° E
Cosmos 1538 Rocket 4.0 21:16:04 10° NNW 21:21:20 80° WSW 21:24:18 26° SSE
Helios 1A Rocket 4.4 21:19:01 14° SSW 21:21:55 30° W 21:25:29 10° NW
CZ-2C R/B 4.1 21:18:44 10° N 21:23:30 69° WNW 21:27:47 13° SSW
GENESIS II 4.0 21:20:47 13° SSW 21:24:13 78° SE 21:28:09 10° NE
Cosmos 1733 Rocket 3.1 21:20:58 10° N 21:25:27 85° W 21:27:44 29° S
Meteor 2-8 Rocket 4.5 21:25:01 16° SSW 21:30:05 82° W 21:36:12 10° N
Geosat 4.0 21:28:35 28° SE 21:31:20 82° ENE 21:36:23 10° NNW
OE (NEXTSAT) 4.1 21:28:04 10° W 21:31:21 62° S 21:32:08 44° ESE
EP 1 4.4 21:29:19 17° SW 21:31:46 89° ESE 21:34:31 10° NE
SAR-Lupe-4 3.5 21:28:31 10° NNE 21:32:07 72° ESE 21:33:22 38° S
SJ 16-02 3.0 21:28:46 10° SW 21:32:42 32° WNW 21:36:41 10° N
Cosmos 1356 3.6 21:35:10 44° ESE 21:35:35 47° E 21:38:46 10° NNE
Cosmos 1908 Rocket 4.0 21:32:50 10° N 21:37:02 46° ENE 21:38:37 31° SE
Cosmos 923 Rocket 4.2 21:34:08 10° NNW 21:39:29 69° ENE 21:42:10 30° SE
Cosmos 1862 Rocket 3.6 21:37:31 27° SSW 21:39:56 85° W 21:44:28 10° N
Cosmos 2360 Rocket 2.6 21:40:43 29° SSE 21:42:55 43° ESE 21:48:14 10° NE
Cosmos 1937 Rocket 4.4 21:42:39 28° SE 21:44:03 32° E 21:48:43 10° NE
Cosmos 1726 3.0 21:40:56 10° N 21:44:20 35° ENE 21:45:09 31° ESE
Cosmos 2263 Rocket 3.5 21:41:08 10° NW 21:45:53 29° WSW 21:49:11 17° SSW
ALOS 2 4.2 21:44:37 18° ESE 21:46:34 25° ENE 21:50:09 10° N
Meteor 1-13 Rocket 4.2 21:44:29 29° SSE 21:47:18 64° E 21:52:47 10° NNE
Cosmos 2266 Rocket 4.2 21:41:57 10° N 21:48:09 62° ENE 21:51:20 29° SSE
NOSS 2-1 (C) 3.2 21:46:44 13° SW 21:49:31 60° NW 21:52:45 10° NE
Terra 3.0 21:47:57 19° SSW 21:50:46 35° W 21:55:08 10° NNW
Cosmos 1441 Rocket 3.2 21:51:04 37° SSW 21:52:24 75° WNW 21:56:08 10° N
Cosmos 1346 Rocket 3.9 21:50:23 17° SW 21:53:09 40° WNW 21:56:58 10° N
Cosmos 2279 Rocket 4.1 21:53:30 20° SSW 21:57:52 72° W 22:04:08 10° N
NOSS 2-1 (D) 3.8 21:56:58 11° WSW 22:00:00 47° NW 22:03:12 10° NNE
Cosmos 2112 Rocket 4.2 21:54:44 10° NNW 22:00:04 67° ENE 22:02:27 33° SE
USA 215 3.5 21:53:53 10° ENE 22:00:07 45° SE 22:03:42 24° SSW
Cosmos 990 Rocket 3.9 21:57:54 27° SSW 22:00:53 86° ESE 22:06:10 10° NNE
Cosmos 1680 Rocket 3.5 21:55:49 10° NNW 22:01:09 78° ENE 22:03:26 35° SSE
Cosmos 2278 Rocket 4.3 21:57:04 10° N 22:01:11 20° NE 22:05:16 10° E
Iridium 2 4.4 21:59:33 10° NNW 22:03:10 45° W 22:04:23 32° SW
Cosmos 1842 4.1 22:03:47 32° ESE 22:04:10 33° E 22:07:40 10° NNE
Meteor 1-12 Rocket 4.3 22:00:09 10° NNW 22:06:09 90° SSE 22:08:53 34° S
Cosmos 1066 Rocket 4.3 22:05:06 26° SSW 22:08:32 77° WNW 22:14:13 10° N
ADEOS Rocket 4.0 22:05:31 20° ESE 22:08:48 36° ENE 22:14:15 10° N
Spot 4 4.0 22:07:13 36° SE 22:09:03 64° ENE 22:13:48 10° N
Cosmos 1818 3.6 22:04:05 10° NW 22:09:35 80° NE 22:12:08 33° SE
Iridium 4 Rocket 3.2 22:07:25 10° N 22:12:01 77° E 22:13:44 41° SSE
Cosmos 1898 Rocket 3.5 22:11:50 34° S 22:14:14 77° ESE 22:19:34 10° NNE
ISS -1.4 22:13:27 10° W 22:14:21 14° WSW 22:14:21 14° WSW
Cosmos 1900 4.4 22:15:19 38° S 22:17:05 62° ESE 22:22:09 10° NE
Okean 1-7 3.0 22:17:25 44° S 22:18:46 89° W 22:23:11 10° N
Iridium 51 4.4 22:21:01 46° SW 22:21:38 55° W 22:25:09 10° N
Cosmos 2322 Rocket 2.4 22:18:02 17° SW 22:22:21 67° WNW 22:27:58 10° NNE
Cosmos 1844 Rocket 2.8 22:20:21 10° NNW 22:25:53 63° WSW 22:27:57 38° S
Okean 3 3.3 22:25:02 52° S 22:26:01 84° E 22:30:18 10° N
Cosmos 2322 4.3 22:25:29 34° SE 22:26:56 40° ESE 22:32:14 10° NE
Cosmos 2333 Rocket 2.4 22:25:18 38° SSE 22:27:07 54° ESE 22:32:39 10° NE
Cosmos 1805 4.4 22:23:56 10° NNW 22:27:27 33° W 22:28:28 28° WSW
H-2A R/B 3.5 22:27:37 10° NNE 22:31:42 62° ESE 22:32:20 53° SE
Cosmos 1461 3.7 22:28:03 10° NNW 22:32:03 45° NE 22:33:55 28° ESE
BREEZE-M DEB (TANK) 3.7 22:30:10 10° W 22:31:52 26° SW 22:31:52 26° SW
ATLAS 2AS CENTAUR R/B 4.2 22:27:18 10° WSW 22:34:33 41° NNW 22:41:33 10° NE
USA 267 3.4 22:29:50 10° ESE 22:36:21 72° NNE 22:42:53 10° NW
ATLAS CENTAUR R/B 1.6 22:31:36 10° NW 22:36:30 82° SW 22:37:50 48° SSE
Meteor 1-23 Rocket 4.2 22:34:01 35° SSW 22:36:38 88° W 22:42:31 10° N
Cosmos 1766 4.0 22:38:57 10° NNW 22:42:41 42° W 22:43:23 38° WSW
Cosmos 2219 Rocket 2.3 22:44:47 41° SSE 22:46:28 58° ESE 22:51:57 10° NE
Cosmos 1844 4.1 22:43:57 10° NW 22:49:34 50° WSW 22:51:27 36° SSW
Cosmos 1703 Rocket 4.3 22:48:15 32° SW 22:49:53 47° WNW 22:54:11 10° N
Cosmos 2221 Rocket 4.4 22:51:06 33° ESE 22:51:50 36° E 22:55:53 10° NNE
Cosmos 372 Rocket 3.9 22:51:17 42° SSW 22:53:02 86° ESE 22:58:15 10° NNE
ATLAS 3B R/B 4.0 22:51:45 10° NW 22:57:55 29° WSW 23:00:38 23° SW
Cosmos 1707 2.6 23:00:36 68° SE 23:00:56 74° E 23:04:49 10° NNE
NOSS 3-1 (A) 4.1 22:54:43 10° NW 23:02:04 78° NE 23:08:57 18° SE
SL-16 R/B 3.9 22:57:20 10° WSW 23:02:16 29° NW 23:07:13 10° NNE
Cosmos 1782 Rocket 4.3 22:59:48 10° NNW 23:03:54 41° W 23:04:50 36° SW
ERS-2 2.0 23:02:57 10° N 23:06:35 74° WNW 23:06:52 68° WSW
Okean 2 3.5 23:06:39 52° SE 23:07:08 57° E 23:11:09 10° NNE
CZ-4C R/B 3.0 23:01:30 10° NW 23:08:42 89° SW 23:14:17 24° SE
NOSS 3-1 (C) 4.1 23:01:58 10° NW 23:09:22 70° SW 23:14:03 30° SSE
USA 290 3.2 23:10:46 38° ENE 23:10:46 38° ENE 23:13:13 10° NE
Cosmos 1238 Rocket 3.1 23:09:21 10° N 23:11:57 41° ENE 23:11:57 41° ENE
Gblst 52 Del rocket 4.4 23:09:09 10° WSW 23:15:31 80° NNW 23:21:13 10° ENE
Cosmos 2237 Rocket 3.4 23:14:56 25° SE 23:16:19 28° ESE 23:21:04 10° NE
KORONAS-FOTON 3.7 23:16:49 67° SE 23:17:03 69° E 23:20:51 10° NNE
Cosmos 1470 3.4 23:15:04 10° NNW 23:18:44 41° W 23:19:01 40° WSW
Cosmos 1726 4.1 23:16:32 10° NW 23:19:04 18° W 23:19:26 17° W
COSMOS 2428 2.7 23:17:53 42° S 23:19:51 74° ESE 23:25:33 10° NNE
Cosmos 1300 Rocket 3.9 23:15:52 10° NNW 23:20:06 51° W 23:20:51 45° SW
NOSS 2-2 (D) 4.5 23:15:26 10° NW 23:20:17 68° NE 23:25:35 17° SE
Cosmos 1745 Rocket 4.3 23:15:53 10° N 23:22:02 59° ENE 23:25:01 31° SE
ALOS 2 3.3 23:22:00 36° WSW 23:22:43 39° W 23:26:52 10° NNW
PSLV R/B 3.8 23:18:26 10° NNE 23:22:48 60° E 23:23:41 49° SSE
Cosmos 2151 Rocket 3.5 23:18:35 10° N 23:23:00 79° E 23:23:57 54° SSE
USA 305 3.9 23:26:44 30° ESE 23:26:44 30° ESE 23:29:37 10° ENE
Cosmos 1242 Rocket 2.5 23:22:32 10° NNW 23:26:07 68° W 23:26:07 68° W
Cosmos 2360 Rocket 3.4 23:22:25 13° WSW 23:27:00 37° NW 23:32:14 10° NNE
Okean 2 Rocket 3.0 23:22:33 10° N 23:27:06 83° W 23:28:05 55° S
Cosmos 405 Rocket 3.0 23:28:20 48° ESE 23:28:31 48° E 23:32:11 10° NNE
Cosmos 1943 Rocket 4.2 23:25:20 10° N 23:29:59 25° NE 23:34:38 10° E
In-Cosmos 22 4.2 23:29:31 40° SSW 23:31:34 79° WNW 23:37:04 10° N
Cosmos 1437 Rocket 3.1 23:29:19 10° N 23:33:00 52° ENE 23:33:33 47° ESE
Nimbus 7 Rocket 4.3 23:27:59 10° NNE 23:33:54 80° ESE 23:36:12 39° S
Cosmos 1908 3.0 23:30:42 10° N 23:34:30 89° W 23:34:48 75° S
Cosmos 1867 3.5 23:33:43 39° SSW 23:35:51 87° SE 23:41:23 10° NE
Cosmos 2298 Rocket 4.4 23:34:33 40° SSE 23:36:01 52° ESE 23:41:10 10° NNE
Meteor 1-21 4.4 23:34:35 36° SSW 23:36:59 68° WNW 23:42:48 10° N
Cosmos 1626 1.9 23:37:36 78° SW 23:37:48 85° WNW 23:41:29 10° N
USA 215 3.5 23:36:51 10° NE 23:43:22 71° NNW 23:49:54 10° WSW
Cosmos 1953 2.5 23:40:01 10° N 23:44:01 65° E 23:44:46 51° SE
Cosmos 2278 Rocket 2.2 23:40:25 10° NNW 23:46:08 85° ENE 23:48:51 33° SSE
Cosmos 468 4.4 23:42:08 10° NNW 23:47:22 75° WSW 23:49:03 44° S
Cosmos 1674 3.1 23:50:45 45° W 23:51:11 48° WNW 23:54:51 10° N
Sich 1 Rocket 4.4 23:49:14 10° NNW 23:53:15 35° W 23:54:00 33° WSW
ADEOS Rocket 3.5 23:52:27 32° SW 23:54:16 40° W 23:59:55 10° NNW
